Regional Weather Roundup
Issued by NWS Goodland, KS

Home | Current Version | Previous Version | Graphics & Text | Print | Product List | Glossary On
Versions: 1 2 3 4 5 6 7 8 9 10 11 12 13 14 15 16 17 18 19 20 21 22 23 24 25 26 27 28 29 30 31 32 33 34 35 36 37 38 39 40 41 42 43 44 45 46 47 48 49 50
279
ASUS43 KGLD 221159
RWRGLD

GOODLAND FORECAST AREA HOURLY WEATHER ROUNDUP
NATIONAL WEATHER SERVICE GOODLAND KS
600 AM MDT SUN OCT 22 2017

...OFFICIAL OBSERVATIONS...

CITY           SKY/WX    TMP DP  RH WIND       PRES   REMARKS
GOODLAND KS    CLEAR     33  21  61 SW12      30.19R
HILL CITY KS   CLEAR     33  26  75 CALM      30.18R
IMPERIAL NEB   CLEAR     32  22  66 W7        30.15R
MCCOOK NEB     CLEAR     31  23  72 SW12      30.17R
AKRON CO       CLEAR     37  16  42 S10       30.14R
BURLINGTON CO  CLEAR     30  20  66 SW10      30.20R
LIMON CO       CLOUDY    34  15  46 S5        30.21R
$$

...UNOFFICIAL OBSERVATIONS...

CITY           SKY/WX    TMP DP  RH WIND       PRES   REMARKS
LENORA KS        N/A     31  32 100 CALM        N/A
NORTON KS      CLEAR     34  23  64 SW8       30.15S
SHARON SPRINGS   N/A     29  22  73 SW8         N/A
TRENTON NEB      N/A     31  32 100 CALM        N/A
KIT CARSON CO    N/A     23  16  74 CALM        N/A
YUMA CO        FAIR      28  21  74 SW8       30.15S
$$




USA.gov is the U.S. government's official web portal to all federal, state and local government web resources and services.